[[{"header":{"parameterUnit":"m.s-1","parameterCategory":1,"la1":30.2991,"la2":30.254,"lo1":-89.0895,"lo2":-89.0444,"dy":0.0017,"dx":0.0017,"nx":28,"ny":28,"refTime":"2025-09-08T03:00:00:Z","depth":0,"parameterNumber":2,"parameterNumberName":"U-component_of_WINDS"},"data":[0,0,0,0,0,0,0,0,0,0,0,0,0,0,0,0,0,0,0,0,0,0,0,0,0,0,0,0,0,0,0,0,0,0,0,0,0,0,0,0,0,0,0,0,0,0,0,0,0,0,0,0,0,0,0,0,0,0,-4.1414,-4.1414,0,-4.1464,-4.1465,-4.1465,-4.1328,-4.1323,-4.1319,-4.1315,-4.1369,-4.1374,-4.138,0,0,0,0,0,0,0,0,0,0,0,0,0,-4.1199,-4.1204,-4.1414,-4.1414,-4.1415,-4.1464,-4.1465,-4.1465,-4.1328,-4.1323,-4.1318,-4.1313,-4.1367,-4.1374,-4.138,0,0,0,0,0,0,0,0,0,0,0,0,0,-4.1276,-4.1206,-4.1414,-4.1352,-4.1347,-4.1464,-4.1465,-4.1466,-4.1329,-4.1323,-4.1316,-4.1311,-4.1365,-4.1373,-4.1381,-4.156,0,0,-4.1406,-4.1409,0,0,0,0,0,0,0,0,-4.1272,-4.1284,-4.1361,-4.1357,-4.1351,-4.1383,-4.1409,-4.1497,-4.1331,-4.1336,-4.1315,-4.1307,-4.1379,-4.1386,-4.1409,-4.1562,-4.1565,-4.1407,-4.1412,-4.1415,-4.1417,0,0,0,0,0,0,0,-4.1266,-4.1281,-4.1434,-4.1362,-4.1356,-4.1323,-4.1326,-4.1425,-4.1393,-4.1335,-4.1325,-4.1333,-4.1375,-4.1402,-4.1409,-4.1566,-4.1406,-4.1414,-4.1419,-4.1422,-4.1867,-4.1874,0,0,0,0,0,0,-4.1269,-4.1277,-4.1432,-4.1435,-4.1295,-4.1332,-4.1336,-4.1379,-4.1392,-4.1387,-4.1339,-4.1327,-4.1391,-4.14,-4.1411,-4.162,-4.1415,-4.1423,-4.1427,-4.186,-4.1869,-4.1876,0,0,0,0,0,0,-4.1265,-4.1284,-4.143,-4.1354,-4.137,-4.1342,-4.1392,-4.1384,-4.141,-4.1394,-4.1388,-4.1372,-4.1386,-4.1399,-4.1523,-4.162,-4.1426,-4.1434,-4.1852,-4.1863,-4.1872,-4.2041,0,0,0,0,0,0,-4.1259,-4.1283,-4.1351,-4.1356,-4.1374,-4.1542,-4.1398,-4.1389,-4.1424,-4.1409,-4.1423,-4.142,-4.1382,-4.1512,-4.1532,-4.1628,-4.144,-4.1843,-4.1857,-4.1869,-4.2027,-4.2056,-4.2081,0,0,0,0,0,-4.1252,-4.1397,-4.1355,-4.1374,-4.1458,-4.1548,-4.1558,-4.1511,-4.1433,-4.15,-4.149,-4.1419,-4.1607,-4.1526,-4.1547,-4.1647,-4.1837,-4.1853,-4.1868,-4.2015,-4.205,-4.208,0,0,0,0,0,0,-4.1404,-4.1396,-4.135,-4.1501,-4.1526,-4.1524,-4.1608,-4.1551,-4.16,-4.1583,-4.1524,-4.1529,-4.1664,-4.1668,-4.1578,-4.182,-4.1708,-4.1729,-4.1812,-4.1846,-4.1873,-4.1869,-4.1447,0,0,0,0,0,-4.1456,-4.1529,-4.1518,-4.1652,-4.1667,-4.1636,-4.1673,-4.1635,-4.1659,-4.1669,-4.1668,-4.1695,-4.1759,-4.1803,-4.1862,-4.2027,-4.2028,-4.2106,-4.2133,-4.2155,-4.2174,-4.2261,-4.2295,-4.1927,-4.1927,-4.1927,0,0,-4.1562,-4.1567,-4.1617,-4.1683,-4.1698,-4.1775,-4.1646,-4.1733,-4.179,-4.1683,-4.1799,-4.18,-4.1825,-4.1971,-4.2034,-4.1978,-4.2275,-4.2175,-4.2193,-4.2199,-4.228,-4.2315,-4.2346,-4.1938,-4.1936,-4.1934,0,0,-4.1795,-4.1806,-4.1919,-4.1936,-4.196,-4.1938,-4.1966,-4.1973,-4.1969,-4.2085,-4.2005,-4.2073,-4.2185,-4.2206,-4.2232,-4.2473,-4.241,-4.2494,-4.2636,-4.2721,-4.275,-4.2775,-4.2861,-4.2892,-4.2513,-4.2513,-4.2513,0,-4.1924,-4.2037,-4.1984,-4.2076,-4.2108,-4.2014,-4.2127,-4.2147,-4.219,-4.2213,-4.215,-4.2288,-4.2299,-4.2448,-4.2506,-4.2531,-4.256,-4.2492,-4.275,-4.2775,-4.2798,-4.2878,-4.2911,-4.2523,-4.2522,-4.2521,-4.252,0,-4.2194,-4.2274,-4.2362,-4.2404,-4.2445,-4.2548,-4.2511,-4.2559,-4.2518,-4.2503,-4.2622,-4.2632,-4.269,-4.2723,-4.2684,-4.2866,-4.283,-4.276,-4.2646,-4.2844,-4.2918,-4.2949,-4.2537,-4.2534,-4.2531,-4.2528,0,0,-4.2524,-4.2536,-4.2569,-4.2586,-4.2606,-4.2667,-4.2765,-4.2822,-4.2864,-4.2897,-4.2978,-4.3075,-4.3009,-4.3039,-4.3001,-4.3077,-4.3266,-4.2996,-4.2995,-4.3045,-4.3467,-4.3519,-4.3556,-4.3224,-4.323,-4.3234,-4.3464,0,-4.2753,-4.2921,-4.2876,-4.3044,-4.3116,-4.3028,-4.3113,-4.3135,-4.3124,-4.3184,-4.3172,-4.3242,-4.315,-4.3167,-4.3238,-4.3228,-4.335,-4.3211,-4.3299,-4.3303,-4.3294,-4.3595,-4.3651,-4.3867,-4.3493,-4.3498,-4.3501,0,-4.3042,-4.3085,-4.326,-4.3267,-4.3295,-4.3373,-4.3421,-4.348,-4.3503,-4.3489,-4.3522,-4.3469,-4.3567,-4.3453,-4.3586,-4.3493,-4.3526,-4.3527,-4.3534,-4.354,-4.3413,-4.3608,-4.3935,-4.3967,-4.3547,-4.3543,-4.354,0,-4.3264,-4.3366,-4.3483,-4.3501,-4.3513,-4.3569,-4.3577,-4.3593,-4.363,-4.3672,-4.3695,-4.3749,-4.3778,-4.3821,-4.3784,-4.3705,-4.3923,-4.3807,-4.3915,-4.3916,-4.3964,-4.3961,-4.43,-4.3988,-4.3987,-4.3987,-4.3986,0,-4.3524,-4.3634,-4.3583,-4.3655,-4.3776,-4.3723,-4.3845,-4.3842,-4.3857,-4.3928,-4.3855,-4.3923,-4.3871,-4.3934,-4.3906,-4.402,-4.4035,-4.4027,-4.4018,-4.4033,-4.4034,-4.4053,-4.4037,-4.3995,-4.3993,-4.3992,-4.399,0,-4.3792,-4.3762,-4.3884,-4.3884,-4.3887,-4.3976,-4.3976,-4.4043,-4.4027,-4.4117,-4.4135,-4.411,-4.4181,-4.4148,-4.4223,-4.4204,-4.4351,-4.4323,-4.4343,-4.4335,-4.4445,-4.4435,-4.4807,-4.4853,-4.4513,-4.4516,-4.4519,0,-4.3959,-4.4041,-4.405,-4.4092,-4.4104,-4.4172,-4.4209,-4.4161,-4.4202,-4.4234,-4.4297,-4.4362,-4.441,-4.4528,-4.4516,-4.4573,-4.4545,-4.4672,-4.4553,-4.4565,-4.4546,-4.4541,-4.4548,-4.4695,-4.4699,-4.4702,-4.4705,0,-4.4258,-4.4239,-4.4294,-4.4345,-4.4391,-4.4429,-4.446,-4.4498,-4.4451,-4.4502,-4.4573,-4.4611,-4.4686,-4.4751,-4.4801,-4.4808,-4.475,-4.4743,-4.477,-4.4786,-4.4794,-4.479,-4.4407,-4.4734,-4.4731,-4.4729,-4.4727,-4.4726,-4.448,-4.4548,-4.4565,-4.4629,-4.4648,-4.4679,-4.4742,-4.4733,-4.4791,-4.4848,-4.4817,-4.49,-4.492,-4.498,-4.4996,-4.5061,-4.5011,-4.5052,-4.5062,-4.5072,-4.5086,-4.4785,-4.507,-4.5069,-4.5068,-4.5067,-4.5067,0,-4.4774,-4.4781,-4.484,-4.4886,-4.4937,-4.4876,-4.4908,-4.4954,-4.5028,-4.5051,-4.5101,-4.5182,-4.5245,-4.5239,-4.5296,-4.5349,-4.5323,-4.5365,-4.536,-4.5363,-4.5128,-4.5098,-4.5385,-4.5385,-4.5385,-4.5385,-4.5385,-4.5385,-4.4933,-4.5046,-4.5029,-4.5151,-4.5156,-4.5236,-4.526,-4.5288,-4.5306,-4.5401,-4.5452,-4.5447,-4.5459,-4.5516,-4.5571,-4.5567,-4.5592,-4.5644,-4.5631,-4.5411,-4.538,-4.535,-4.5321,-4.565,-4.565,-4.586,-4.5862,-4.5863]},{"header":{"parameterUnit":"m.s-1","parameterCategory":1,"la1":30.2991,"la2":30.254,"lo1":-89.0895,"lo2":-89.0444,"dy":0.0017,"dx":0.0017,"nx":28,"ny":28,"refTime":"2025-09-08T03:00:00:Z","depth":0,"parameterNumber":3,"parameterNumberName":"V-component_of_WINDS"},"data":[0,0,0,0,0,0,0,0,0,0,0,0,0,0,0,0,0,0,0,0,0,0,0,0,0,0,0,0,0,0,0,0,0,0,0,0,0,0,0,0,0,0,0,0,0,0,0,0,0,0,0,0,0,0,0,0,0,0,-2.2289,-2.2289,0,-2.2294,-2.2294,-2.2294,-2.229,-2.229,-2.229,-2.229,-2.2293,-2.2293,-2.2293,0,0,0,0,0,0,0,0,0,0,0,0,0,-2.2274,-2.2274,-2.2289,-2.2289,-2.2289,-2.2294,-2.2294,-2.2294,-2.229,-2.229,-2.229,-2.229,-2.2293,-2.2293,-2.2294,0,0,0,0,0,0,0,0,0,0,0,0,0,-2.2279,-2.2274,-2.2289,-2.2288,-2.2288,-2.2294,-2.2294,-2.2294,-2.229,-2.229,-2.229,-2.2289,-2.2293,-2.2293,-2.2294,-2.23,0,0,-2.2295,-2.2295,0,0,0,0,0,0,0,0,-2.2279,-2.228,-2.2288,-2.2288,-2.2288,-2.2291,-2.229,-2.2296,-2.229,-2.2289,-2.229,-2.2289,-2.2292,-2.2293,-2.2294,-2.23,-2.2301,-2.2295,-2.2295,-2.2295,-2.2295,0,0,0,0,0,0,0,-2.2279,-2.228,-2.2291,-2.2288,-2.2288,-2.2286,-2.2287,-2.2291,-2.2292,-2.2289,-2.2289,-2.229,-2.2292,-2.2294,-2.2294,-2.2301,-2.2295,-2.2295,-2.2295,-2.2295,-2.2311,-2.2311,0,0,0,0,0,0,-2.2279,-2.2279,-2.229,-2.2291,-2.2283,-2.2286,-2.2287,-2.229,-2.2292,-2.2292,-2.229,-2.2289,-2.2293,-2.2294,-2.2294,-2.2301,-2.2295,-2.2295,-2.2296,-2.231,-2.2311,-2.2311,0,0,0,0,0,0,-2.2278,-2.228,-2.229,-2.2285,-2.2286,-2.2287,-2.229,-2.229,-2.2292,-2.2292,-2.2292,-2.2291,-2.2293,-2.2294,-2.2298,-2.2301,-2.2295,-2.2296,-2.231,-2.2311,-2.2311,-2.2316,0,0,0,0,0,0,-2.2278,-2.228,-2.2283,-2.2285,-2.2286,-2.2295,-2.2291,-2.2291,-2.2293,-2.2292,-2.2294,-2.2294,-2.2293,-2.2298,-2.2299,-2.2302,-2.2296,-2.231,-2.231,-2.2311,-2.2315,-2.2316,-2.2317,0,0,0,0,0,-2.2277,-2.2284,-2.2283,-2.2285,-2.2291,-2.2295,-2.2296,-2.2296,-2.2293,-2.2296,-2.2296,-2.2294,-2.2301,-2.2299,-2.2299,-2.2302,-2.231,-2.231,-2.2311,-2.2315,-2.2316,-2.2317,0,0,0,0,0,0,-2.2282,-2.2285,-2.2283,-2.2291,-2.2293,-2.2295,-2.2298,-2.2297,-2.2299,-2.2299,-2.2297,-2.2298,-2.2302,-2.2303,-2.23,-2.2308,-2.2305,-2.2305,-2.2308,-2.2309,-2.2309,-2.2309,-2.2296,0,0,0,0,0,-2.2284,-2.2288,-2.229,-2.2297,-2.2298,-2.2298,-2.23,-2.2299,-2.2301,-2.2301,-2.2302,-2.2303,-2.2305,-2.2307,-2.2309,-2.2315,-2.2315,-2.2317,-2.2318,-2.2319,-2.2319,-2.2321,-2.2322,-2.2312,-2.2312,-2.2312,0,0,-2.2288,-2.229,-2.2293,-2.2298,-2.2299,-2.2302,-2.2299,-2.2303,-2.2305,-2.2302,-2.2306,-2.2306,-2.2308,-2.2312,-2.2315,-2.2313,-2.2322,-2.2319,-2.232,-2.232,-2.2322,-2.2322,-2.2323,-2.2313,-2.2313,-2.2313,0,0,-2.2297,-2.23,-2.2305,-2.2306,-2.2308,-2.2308,-2.2309,-2.2311,-2.2311,-2.2315,-2.2313,-2.2315,-2.2319,-2.232,-2.232,-2.2328,-2.2326,-2.2329,-2.2333,-2.2334,-2.2335,-2.2336,-2.2337,-2.2338,-2.2329,-2.2329,-2.2329,0,-2.2302,-2.2308,-2.2307,-2.2311,-2.2313,-2.231,-2.2315,-2.2316,-2.2318,-2.2319,-2.2317,-2.2322,-2.2322,-2.2327,-2.2328,-2.233,-2.233,-2.2328,-2.2335,-2.2336,-2.2336,-2.2338,-2.2338,-2.2329,-2.2329,-2.2329,-2.2329,0,-2.2313,-2.2317,-2.232,-2.2323,-2.2325,-2.2329,-2.2328,-2.233,-2.2328,-2.2328,-2.2332,-2.2332,-2.2334,-2.2335,-2.2334,-2.2339,-2.2337,-2.2335,-2.2332,-2.2337,-2.2339,-2.2339,-2.233,-2.233,-2.233,-2.233,0,0,-2.2326,-2.2327,-2.2328,-2.2329,-2.233,-2.2333,-2.2336,-2.2338,-2.2339,-2.234,-2.2342,-2.2345,-2.2343,-2.2344,-2.2343,-2.2344,-2.2349,-2.2342,-2.2342,-2.2342,-2.2352,-2.2354,-2.2354,-2.2347,-2.2347,-2.2347,-2.2352,0,-2.2334,-2.234,-2.2339,-2.2345,-2.2348,-2.2345,-2.2347,-2.2348,-2.2347,-2.2349,-2.2348,-2.235,-2.2347,-2.2347,-2.2349,-2.2348,-2.235,-2.2347,-2.2348,-2.2348,-2.2348,-2.2355,-2.2357,-2.2361,-2.2353,-2.2353,-2.2353,0,-2.2345,-2.2346,-2.2352,-2.2352,-2.2353,-2.2356,-2.2356,-2.2358,-2.2358,-2.2358,-2.2358,-2.2356,-2.2358,-2.2355,-2.2357,-2.2355,-2.2355,-2.2354,-2.2354,-2.2354,-2.2351,-2.2354,-2.2363,-2.2363,-2.2354,-2.2354,-2.2354,0,-2.2352,-2.2356,-2.236,-2.236,-2.236,-2.2362,-2.2362,-2.2362,-2.2362,-2.2363,-2.2363,-2.2364,-2.2364,-2.2364,-2.2362,-2.236,-2.2364,-2.236,-2.2362,-2.2362,-2.2363,-2.2363,-2.2371,-2.2364,-2.2364,-2.2364,-2.2364,0,-2.2361,-2.2365,-2.2363,-2.2365,-2.2368,-2.2366,-2.237,-2.2369,-2.2369,-2.237,-2.2367,-2.2369,-2.2366,-2.2366,-2.2365,-2.2366,-2.2366,-2.2365,-2.2365,-2.2365,-2.2365,-2.2365,-2.2364,-2.2364,-2.2364,-2.2364,-2.2364,0,-2.237,-2.2369,-2.2373,-2.2372,-2.2372,-2.2374,-2.2373,-2.2375,-2.2374,-2.2375,-2.2375,-2.2374,-2.2374,-2.2372,-2.2372,-2.2371,-2.2373,-2.2372,-2.2373,-2.2372,-2.2374,-2.2373,-2.2381,-2.2382,-2.2375,-2.2375,-2.2375,0,-2.2375,-2.2378,-2.2377,-2.2378,-2.2378,-2.238,-2.238,-2.2378,-2.2379,-2.2378,-2.2379,-2.238,-2.238,-2.238,-2.2378,-2.2378,-2.2377,-2.238,-2.2377,-2.2377,-2.2376,-2.2376,-2.2375,-2.238,-2.238,-2.238,-2.238,0,-2.2385,-2.2384,-2.2385,-2.2386,-2.2386,-2.2387,-2.2387,-2.2388,-2.2385,-2.2386,-2.2386,-2.2386,-2.2386,-2.2386,-2.2385,-2.2384,-2.2381,-2.2381,-2.2381,-2.2382,-2.2382,-2.2381,-2.2374,-2.2381,-2.2381,-2.2381,-2.2381,-2.2381,-2.2392,-2.2393,-2.2393,-2.2394,-2.2394,-2.2393,-2.2394,-2.2393,-2.2394,-2.2394,-2.2392,-2.2393,-2.2391,-2.239,-2.2389,-2.2389,-2.2387,-2.2388,-2.2388,-2.2388,-2.2388,-2.2382,-2.2388,-2.2388,-2.2388,-2.2388,-2.2388,0,-2.24,-2.24,-2.2401,-2.2401,-2.2401,-2.2399,-2.2398,-2.2399,-2.2399,-2.2398,-2.2398,-2.2398,-2.2398,-2.2396,-2.2395,-2.2395,-2.2394,-2.2395,-2.2394,-2.2394,-2.239,-2.2389,-2.2396,-2.2396,-2.2396,-2.2396,-2.2396,-2.2396,-2.2405,-2.2407,-2.2406,-2.2407,-2.2407,-2.2407,-2.2407,-2.2406,-2.2406,-2.2406,-2.2405,-2.2404,-2.2402,-2.2401,-2.24,-2.2399,-2.2399,-2.24,-2.2399,-2.2395,-2.2394,-2.2394,-2.2393,-2.24,-2.24,-2.2403,-2.2403,-2.2403]}]]